Tracking 26443 objects as of 4-Dec-2022
HD Live streaming from Space Station
objects crossing your sky now

COSMOS 1408 DEB

Track COSMOS 1408 DEB now!
10-day predictions


NORAD ID: 50904
Int'l Code: 1982-092AUX
Perigee: 405.1 km
Apogee: 462.9 km
Inclination: 82.6 °
Period: 93.1 minutes
Semi major axis: 6804 km
RCS: Unknown
Launch date: September 16, 1982
Source: Commonwealth of Independent States (former USSR) (CIS)
Launch site: PLESETSK MISSILE AND SPACE COMPLEX (PKMTR)

Note: This is SATELLITE DEBRIS
aabbcc
Your satellite tracking list
Your tracking list is empty




NASA's NSSDC Master Catalog

Two Line Element Set (TLE):
1 50904U 82092AUX 22337.73815369  .00086534  00000-0  16667-2 0  9992
2 50904  82.6231 105.3047 0042485 107.4353 253.1548 15.46541387 51107
Source of the keplerian elements: AFSPC